Location: ?????
(31.8092°N, 35.2590°E)
Time: 10:41:43
(UTC+00:00)

Cosmos 1455 Rocket - Pass Details

Date: 21 October 2021
Orbit: 604 x 630 km, 82.5° (Epoch: 26 November)

Event Time Altitude Azimuth Distance (km) Brightness Sun altitude
Rises 02:09:13 0° 12° (NNE) 2,919 6.7 -21.4°
Reaches altitude 10° 02:12:00 10° 29° (NNE) 2,005 6.0 -20.8°
Maximum altitude 02:15:15 20° 77° (ENE) 1,460 5.8 -20.1°
Drops below altitude 10° 02:18:29 10° 124° (SE) 1,987 6.5 -19.4°
Sets 02:21:12 0° 141° (SE) 2,884 7.1 -18.8°
